Regional Weather Roundup
Issued by NWS

Home | Current Version | Previous Version | Text Only | Print | Product List | Glossary Off
Versions: 1 2 3 4 5 6 7 8 9 10 11 12 13 14 15 16 17 18 19 20 21 22 23 24 25 26 27 28 29 30 31 32 33 34 35 36 37 38 39 40 41 42 43 44 45 46 47 48 49 50

000
ASUS45 KPSR 270500
RWRAZ

PRELIMINARY ARIZONA REGIONAL HOURLY WEATHER ROUNDUP
NATIONAL WEATHER SERVICE PHOENIX AZ
1000 PM MST WED NOV 26 2014

NOTE: FAIR INDICATES FEW OR NO CLOUDS BELOW 12,000 FEET WITH NO
SIGNIFICANT WEATHER AND/OR OBSTRUCTIONS TO VISIBILITY.

AZZ001>003-036-270600-
NORTHWEST ARIZONA

CITY           SKY/WX    TMP DP  RH WIND       PRES   REMARKS
KINGMAN        CLEAR     42  17  36 S6        30.33R
$$

AZZ004>008-015-016-018-270600-
NORTH CENTRAL ARIZONA

CITY           SKY/WX    TMP DP  RH WIND       PRES   REMARKS
GRAND CANYON   PTCLDY    21   7  54 NE5       30.48R WCI  15
PRESCOTT       CLEAR     42  17  36 SW6       30.39R
FLAGSTAFF      NOT AVBL
PAYSON         CLEAR     54  12  19 N6        30.39S
PAGE           CLEAR     44  19  36 CALM      30.41R
$$

AZZ009>014-017-270600-
NORTHEAST ARIZONA

CITY           SKY/WX    TMP DP  RH WIND       PRES   REMARKS
WINSLOW        NOT AVBL
SAINT JOHNS    PTCLDY    38  18  44 S9        30.45R WCI  31
SHOW LOW       CLEAR     34  14  44 E6        30.48S WCI  29
$$

AZZ023-270600-
GREATER PHOENIX AREA

CITY           SKY/WX    TMP DP  RH WIND       PRES   REMARKS
PHOENIX        CLEAR     59  25  27 E3        30.18R
BUCKEYE        CLEAR     50  16  25 N6        30.19S
DEER VALLEY    CLEAR     57  18  21 N7        30.20R
SCOTTSDALE     CLEAR     54  22  28 CALM      30.21R
MESA-GATEWAY   CLEAR     48  21  34 SE3       30.21S
$$

AZZ027-028-270600-
SOUTHWEST MARICOPA COUNTY AND PINAL COUNTY

CITY           SKY/WX    TMP DP  RH WIND       PRES   REMARKS
CASA GRANDE    CLEAR     54  12  19 CALM      30.19F
$$

AZZ503-504-507>509-270600-
SOUTHEAST ARIZONA

CITY           SKY/WX    TMP DP  RH WIND       PRES   REMARKS
TUCSON         CLEAR     51  15  23 CALM      30.25S
DAVIS-MONTHAN  CLEAR     49  17  28 CALM      30.23S
NOGALES        CLEAR     49  17  28 SE3       30.27R
SIERRA VISTA   CLEAR     48  18  29 CALM      30.32S
SAFFORD        CLEAR     45  13  27 SE3       30.28R
$$

AZZ020-021-025-026-031-270600-
SOUTHWEST ARIZONA

CITY           SKY/WX    TMP DP  RH WIND       PRES   REMARKS
YUMA           CLEAR     60  27  28 CALM      30.17R
$$

CAZ031-033-041-043-047-048-061-270600-
SOUTHERN CALIFORNIA

CITY           SKY/WX    TMP DP  RH WIND       PRES   REMARKS
DOWNTOWN L.A.  CLEAR     62  46  55 CALM      30.13R
L.A. AIRPORT   CLEAR     65  51  60 SE3       30.14R
SAN DIEGO      CLEAR     66  37  34 N3        30.13S
BURBANK        CLEAR     65  25  22 CALM      30.16R
ONTARIO        CLEAR     60  30  32 NW3       30.17R
RIVERSIDE      CLEAR     66  27  23 NE6       30.17S
PALM SPRINGS   CLEAR     61  24  24 NW8       30.20F
EL CENTRO NAS  CLEAR     53  35  50 W7        30.17S
IMPERIAL       CLEAR     52  37  56 W6        30.16S
BLYTHE         CLEAR     59  19  21 CALM      30.19R
$$

NVZ020-UTZ003-270600-
SOUTHERN NEVADA-UTAH

CITY           SKY/WX    TMP DP  RH WIND       PRES   REMARKS
LAS VEGAS      CLEAR     55  19  24 SW6       30.28R
SALT LAKE CITY CLEAR     43  28  55 SE9       30.35S
$$

NMZ009-TXZ055-270600-
NEW MEXICO-WEST TEXAS

CITY           SKY/WX    TMP DP  RH WIND       PRES   REMARKS
ALBUQUERQUE    PTCLDY    49  23  36 NW5       30.41R
EL PASO        PTCLDY    49  19  30 CALM      30.33R
$$


........................KEY........................
SKY/WX - SKY CONDITION/WEATHER
TMP    - TEMPERATURE IN FAHRENHEIT
DP     - DEW POINT IN FAHRENHEIT
RH     - RELATIVE HUMIDITY IN PERCENT
WIND   - DIRECTION AND SPEED IN MILES PER HOUR (MPH)
VRB    - VARIABLE WIND DIRECTION
PRES   - MEAN SEA LEVEL PRESSURE IN INCHES OF MERCURY
         F - FALLING PRESSURE   R - RISING PRESSURE
         S - STEADY PRESSURE
VSB    - VISIBILITY IN MILES
HX     - HEAT INDEX IN FAHRENHEIT
WCI    - WIND CHILL INDEX IN FAHRENHEIT
TC     - TEMPERATURE IN CELSIUS WHICH IS ALSO KNOWN AS
         TEMPERATURE IN CENTIGRADE
AFB    - AIR FORCE BASE
         LUKE AFB IS LUKE AIR FORCE BASE
         DAVIS-MONTHAN IS DAVIS-MONTHAN AIR FORCE BASE
NAS    - NAVAL AIR STATION
         EL CENTRO NAS IS EL CENTRO NAVAL AIR STATION
N/A    - NOT AVAILABLE


USA.gov is the U.S. government's official web portal to all federal, state and local government web resources and services.